[[{"header":{"parameterUnit":"m.s-1","parameterCategory":1,"la1":30.2991,"la2":30.254,"lo1":-89.0895,"lo2":-89.0444,"dy":0.0017,"dx":0.0017,"nx":28,"ny":28,"refTime":"2024-04-18T21:00:00:Z","depth":0,"parameterNumber":2,"parameterNumberName":"U-component_of_WINDS"},"data":[0,0,0,0,0,0,0,0,0,0,0,0,0,0,0,0,0,0,0,0,0,0,0,0,0,0,0,0,0,0,0,0,0,0,0,0,0,0,0,0,0,0,0,0,0,0,0,0,0,0,0,0,0,0,0,0,0,0,0.1369,0.137,0,0.1433,0.1434,0.1435,0.1432,0.1431,0.143,0.1429,0.15,0.1502,0.1505,0,0,0,0,0,0,0,0,0,0,0,0,0,0.1248,0.125,0.1369,0.137,0.1371,0.1433,0.1434,0.1435,0.1432,0.1431,0.143,0.1429,0.1499,0.1502,0.1505,0,0,0,0,0,0,0,0,0,0,0,0,0,0.1305,0.1251,0.1369,0.1377,0.1378,0.1433,0.1434,0.1435,0.1433,0.1431,0.143,0.1429,0.1498,0.1502,0.1506,0.1558,0,0,0.1518,0.152,0,0,0,0,0,0,0,0,0.1302,0.131,0.1375,0.1376,0.1378,0.1423,0.1417,0.1477,0.1433,0.1412,0.1429,0.1428,0.1476,0.1482,0.1497,0.1562,0.1565,0.1519,0.1521,0.1523,0.1524,0,0,0,0,0,0,0,0.1298,0.1307,0.1395,0.1376,0.1378,0.1378,0.1385,0.1428,0.1451,0.1414,0.1414,0.1421,0.1476,0.1493,0.1498,0.1566,0.1519,0.1522,0.1525,0.1526,0.1677,0.1678,0,0,0,0,0,0,0.1292,0.1304,0.1393,0.1397,0.1336,0.1382,0.1389,0.141,0.145,0.1455,0.1422,0.1421,0.1487,0.1494,0.1501,0.1565,0.1523,0.1527,0.1529,0.1675,0.1677,0.1679,0,0,0,0,0,0,0.1289,0.13,0.139,0.135,0.1362,0.1385,0.1409,0.1412,0.1429,0.1457,0.1461,0.1435,0.1486,0.1495,0.1544,0.1567,0.1529,0.1532,0.1673,0.1676,0.1678,0.1694,0,0,0,0,0,0,0.1286,0.1299,0.1318,0.135,0.1364,0.1431,0.141,0.1414,0.1435,0.1434,0.147,0.1474,0.1485,0.1538,0.1548,0.1572,0.1535,0.1671,0.1674,0.1677,0.1691,0.1697,0.1701,0,0,0,0,0,0.1281,0.1322,0.1319,0.133,0.1389,0.1432,0.144,0.1451,0.1437,0.1457,0.1475,0.1473,0.1563,0.1543,0.1554,0.158,0.167,0.1673,0.1677,0.1689,0.1696,0.1701,0,0,0,0,0,0,0.1294,0.1326,0.1324,0.1376,0.1401,0.1432,0.1458,0.1457,0.1488,0.1486,0.1499,0.1507,0.1556,0.1573,0.155,0.1633,0.1615,0.1621,0.162,0.1626,0.1631,0.1627,0.1539,0,0,0,0,0,0.1302,0.1334,0.1361,0.1404,0.1416,0.1435,0.1454,0.146,0.1488,0.1499,0.152,0.1548,0.1583,0.1605,0.1639,0.1693,0.1701,0.1717,0.1721,0.1725,0.1731,0.1761,0.1768,0.169,0.169,0.169,0,0,0.1321,0.1342,0.1362,0.1407,0.1427,0.1461,0.1444,0.1481,0.1506,0.1505,0.1552,0.1568,0.16,0.1652,0.1676,0.1668,0.1754,0.173,0.1732,0.1736,0.1765,0.1773,0.1779,0.1692,0.1692,0.1692,0,0,0.1372,0.1391,0.1429,0.1449,0.1479,0.149,0.1499,0.153,0.154,0.1587,0.1587,0.1617,0.1676,0.1699,0.1718,0.1775,0.1775,0.1786,0.1811,0.184,0.1846,0.1852,0.1873,0.188,0.1791,0.1791,0.1791,0,0.1392,0.1441,0.1449,0.1485,0.1505,0.1503,0.1541,0.1561,0.1601,0.1615,0.1605,0.1678,0.1699,0.1756,0.177,0.1785,0.1797,0.1783,0.1844,0.185,0.1856,0.1876,0.1884,0.1792,0.1792,0.1792,0.1791,0,0.1464,0.1498,0.1525,0.1562,0.1584,0.1622,0.1636,0.1658,0.1661,0.1674,0.1721,0.1746,0.1784,0.1798,0.1802,0.1855,0.1849,0.1841,0.1824,0.1864,0.1883,0.1891,0.1794,0.1793,0.1793,0.1792,0,0,0.1528,0.1566,0.1576,0.1592,0.1624,0.1651,0.1688,0.1723,0.1742,0.1769,0.1802,0.185,0.1843,0.1864,0.1871,0.1896,0.194,0.1885,0.1886,0.1895,0.2001,0.2007,0.2016,0.1939,0.194,0.1941,0.1998,0,0.1583,0.1647,0.1654,0.1712,0.1743,0.1741,0.1773,0.1796,0.1809,0.1839,0.1853,0.1887,0.1874,0.1887,0.1912,0.1929,0.1962,0.1925,0.197,0.1972,0.1964,0.2026,0.2034,0.2086,0.2006,0.2007,0.2008,0,0.1656,0.1683,0.1743,0.177,0.1783,0.1812,0.1845,0.1872,0.1899,0.1906,0.1929,0.1932,0.1971,0.195,0.2004,0.1979,0.1998,0.2009,0.2011,0.2017,0.1994,0.2035,0.2103,0.2111,0.202,0.2019,0.2018,0,0.1697,0.1749,0.1791,0.1805,0.1837,0.1857,0.1872,0.1896,0.1917,0.1945,0.1959,0.1992,0.2011,0.2036,0.2048,0.2032,0.2102,0.2082,0.211,0.211,0.2127,0.2126,0.22,0.2137,0.2136,0.2136,0.2136,0,0.1759,0.1796,0.181,0.1836,0.1878,0.1885,0.1927,0.1941,0.1962,0.1992,0.1992,0.202,0.2033,0.2064,0.2073,0.2117,0.2125,0.2133,0.2135,0.2134,0.2133,0.2148,0.2145,0.2138,0.2138,0.2138,0.2137,0,0.1813,0.1823,0.187,0.1895,0.1902,0.1932,0.1954,0.198,0.1991,0.2028,0.2038,0.2056,0.2091,0.2105,0.2149,0.2155,0.2206,0.2205,0.2197,0.2198,0.2226,0.2223,0.2313,0.2325,0.2252,0.2253,0.2253,0,0.1852,0.188,0.1908,0.1927,0.1941,0.1972,0.1992,0.2,0.2021,0.2052,0.2075,0.2109,0.2138,0.2195,0.2213,0.2247,0.2247,0.2276,0.2252,0.225,0.2249,0.2247,0.2251,0.2281,0.2282,0.2283,0.2283,0,0.1921,0.1924,0.1953,0.1982,0.2005,0.203,0.2053,0.2069,0.2081,0.2104,0.214,0.2161,0.2205,0.224,0.2274,0.229,0.2289,0.229,0.2298,0.2298,0.2293,0.2297,0.221,0.2288,0.2288,0.2287,0.2287,0.2287,0.197,0.1995,0.2017,0.2049,0.2066,0.2088,0.2113,0.2126,0.2155,0.219,0.2193,0.2231,0.2256,0.2301,0.2319,0.2349,0.2342,0.2354,0.2357,0.2361,0.2363,0.2286,0.2355,0.2355,0.2355,0.2355,0.2355,0,0.204,0.2054,0.2082,0.2114,0.2138,0.2132,0.2157,0.2179,0.2212,0.2234,0.2261,0.2302,0.2335,0.2354,0.2388,0.2409,0.2409,0.2418,0.2417,0.2421,0.2367,0.2357,0.2417,0.2417,0.2417,0.2417,0.2417,0.2417,0.2079,0.2121,0.2126,0.2177,0.2191,0.2227,0.2242,0.2262,0.2279,0.2324,0.2351,0.2362,0.2384,0.2419,0.2449,0.2454,0.2467,0.2476,0.2481,0.2431,0.2425,0.2419,0.2409,0.2479,0.2479,0.2532,0.2533,0.2533]},{"header":{"parameterUnit":"m.s-1","parameterCategory":1,"la1":30.2991,"la2":30.254,"lo1":-89.0895,"lo2":-89.0444,"dy":0.0017,"dx":0.0017,"nx":28,"ny":28,"refTime":"2024-04-18T21:00:00:Z","depth":0,"parameterNumber":3,"parameterNumberName":"V-component_of_WINDS"},"data":[0,0,0,0,0,0,0,0,0,0,0,0,0,0,0,0,0,0,0,0,0,0,0,0,0,0,0,0,0,0,0,0,0,0,0,0,0,0,0,0,0,0,0,0,0,0,0,0,0,0,0,0,0,0,0,0,0,0,1.3199,1.3199,0,1.3215,1.3215,1.3215,1.3192,1.3191,1.319,1.3189,1.3204,1.3205,1.3207,0,0,0,0,0,0,0,0,0,0,0,0,0,1.3145,1.3146,1.3198,1.3199,1.3199,1.3215,1.3215,1.3215,1.3192,1.3191,1.319,1.3189,1.3204,1.3205,1.3207,0,0,0,0,0,0,0,0,0,0,0,0,0,1.3165,1.3146,1.3198,1.3189,1.3189,1.3215,1.3215,1.3215,1.3192,1.3191,1.319,1.3189,1.3203,1.3205,1.3207,1.3242,0,0,1.3212,1.3213,0,0,0,0,0,0,0,0,1.3164,1.3167,1.319,1.319,1.3189,1.32,1.3202,1.3224,1.3193,1.3191,1.3189,1.3188,1.3204,1.3205,1.3211,1.3243,1.3244,1.3212,1.3213,1.3214,1.3215,0,0,0,0,0,0,0,1.3163,1.3167,1.3205,1.3191,1.319,1.3184,1.3185,1.3206,1.3204,1.3191,1.3189,1.3192,1.3203,1.321,1.3211,1.3244,1.3212,1.3214,1.3215,1.3216,1.3306,1.3307,0,0,0,0,0,0,1.3163,1.3166,1.3204,1.3205,1.3174,1.3186,1.3187,1.3198,1.3204,1.3203,1.3193,1.319,1.3207,1.3209,1.3212,1.3254,1.3214,1.3216,1.3217,1.3305,1.3306,1.3308,0,0,0,0,0,0,1.3162,1.3167,1.3204,1.3185,1.3189,1.3188,1.32,1.3199,1.3205,1.3205,1.3204,1.32,1.3206,1.3209,1.3235,1.3254,1.3217,1.3218,1.3303,1.3305,1.3307,1.3339,0,0,0,0,0,0,1.316,1.3166,1.318,1.3186,1.319,1.3228,1.3201,1.32,1.3208,1.3206,1.3211,1.3211,1.3206,1.3233,1.3237,1.3256,1.3219,1.3301,1.3304,1.3306,1.3337,1.3342,1.3347,0,0,0,0,0,1.3159,1.3188,1.3181,1.3186,1.3208,1.3229,1.3231,1.3225,1.321,1.3224,1.3224,1.3211,1.3251,1.3236,1.324,1.326,1.33,1.3303,1.3306,1.3334,1.3341,1.3347,0,0,0,0,0,0,1.3184,1.3189,1.3181,1.3213,1.3221,1.3225,1.3242,1.3232,1.3244,1.3241,1.3232,1.3233,1.3261,1.3263,1.3245,1.3295,1.3273,1.3277,1.3293,1.33,1.3305,1.3304,1.3221,0,0,0,0,0,1.3194,1.3211,1.3214,1.3242,1.3246,1.3244,1.3252,1.3247,1.3254,1.3257,1.3259,1.3266,1.328,1.329,1.3303,1.3336,1.3338,1.3352,1.3358,1.3362,1.3366,1.3384,1.3391,1.3318,1.3318,1.3318,0,0,1.3214,1.3218,1.3229,1.3247,1.3252,1.327,1.3246,1.3266,1.3279,1.326,1.3285,1.3286,1.3293,1.3324,1.3337,1.3326,1.3386,1.3366,1.3369,1.3371,1.3388,1.3395,1.3402,1.332,1.332,1.3319,0,0,1.3259,1.3264,1.3288,1.3294,1.3303,1.3301,1.3307,1.3312,1.3313,1.3338,1.3324,1.3339,1.3364,1.337,1.3376,1.3424,1.3412,1.3428,1.3456,1.3474,1.348,1.3485,1.3503,1.3509,1.3432,1.3432,1.3432,0,1.3282,1.3309,1.3302,1.3323,1.3331,1.3315,1.334,1.3346,1.3358,1.3364,1.3351,1.3383,1.3386,1.3418,1.343,1.3435,1.3441,1.3428,1.348,1.3485,1.3489,1.3506,1.3513,1.3434,1.3433,1.3433,1.3433,0,1.3337,1.3356,1.3375,1.3388,1.3398,1.3421,1.3417,1.3428,1.3421,1.342,1.3446,1.345,1.3464,1.3471,1.3464,1.3502,1.3495,1.3481,1.3459,1.3498,1.3514,1.352,1.3436,1.3436,1.3435,1.3435,0,0,1.34,1.3409,1.3416,1.3423,1.3431,1.3445,1.3466,1.3481,1.3491,1.35,1.3518,1.3539,1.3527,1.3534,1.3528,1.3543,1.3582,1.3528,1.3528,1.3539,1.3624,1.3635,1.3643,1.3574,1.3575,1.3576,1.3624,0,1.3446,1.3485,1.3479,1.3516,1.3533,1.3518,1.3537,1.3544,1.3544,1.3558,1.3557,1.3573,1.3555,1.3559,1.3574,1.3574,1.3599,1.357,1.3591,1.3592,1.3591,1.3651,1.3663,1.3708,1.363,1.3631,1.3632,0,1.3505,1.3517,1.3556,1.3562,1.3569,1.3587,1.36,1.3613,1.3621,1.3619,1.3628,1.3619,1.364,1.3617,1.3646,1.3627,1.3635,1.3636,1.3638,1.364,1.3615,1.3656,1.3722,1.3729,1.3641,1.3641,1.364,0,1.3548,1.3573,1.36,1.3606,1.3614,1.3626,1.363,1.3636,1.3645,1.3656,1.3662,1.3675,1.3682,1.3692,1.3687,1.3671,1.3718,1.3694,1.3717,1.3718,1.3729,1.3728,1.3797,1.3732,1.3732,1.3732,1.3732,0,1.36,1.3625,1.362,1.3637,1.3664,1.3657,1.3683,1.3685,1.3691,1.3707,1.3694,1.371,1.3701,1.3716,1.3712,1.3737,1.374,1.374,1.3739,1.3742,1.3742,1.3747,1.3744,1.3734,1.3733,1.3733,1.3732,0,1.3653,1.3651,1.3679,1.3684,1.3686,1.3706,1.371,1.3726,1.3724,1.3745,1.375,1.3748,1.3765,1.376,1.3778,1.3775,1.3807,1.3801,1.3805,1.3804,1.3828,1.3826,1.3904,1.3914,1.3841,1.3842,1.3843,0,1.3687,1.3706,1.3714,1.3724,1.3729,1.3746,1.3756,1.3749,1.3759,1.3769,1.3784,1.3799,1.3812,1.3839,1.3839,1.3853,1.3848,1.3874,1.385,1.3853,1.3849,1.3849,1.3851,1.3879,1.388,1.3881,1.3881,0,1.3748,1.3746,1.3761,1.3776,1.3788,1.3799,1.3809,1.3818,1.3812,1.3824,1.3842,1.3851,1.387,1.3886,1.3899,1.3901,1.3891,1.3889,1.3895,1.3899,1.3901,1.3901,1.382,1.3887,1.3887,1.3886,1.3886,1.3886,1.3793,1.381,1.3818,1.3835,1.3842,1.3851,1.3866,1.3867,1.3882,1.3898,1.3892,1.3913,1.3919,1.3935,1.394,1.3955,1.3945,1.3954,1.3957,1.3959,1.3963,1.3898,1.3957,1.3957,1.3957,1.3957,1.3957,0,1.3855,1.386,1.3875,1.389,1.3903,1.3892,1.3902,1.3914,1.3933,1.394,1.3953,1.3973,1.3989,1.399,1.4004,1.4016,1.4012,1.402,1.402,1.4021,1.397,1.3964,1.4024,1.4024,1.4024,1.4024,1.4024,1.4024,1.3889,1.3916,1.3915,1.3946,1.395,1.397,1.3977,1.3986,1.3992,1.4016,1.4029,1.403,1.4035,1.405,1.4063,1.4063,1.4069,1.408,1.4078,1.4031,1.4024,1.4018,1.4012,1.4081,1.4081,1.4128,1.4128,1.4129]}]]